This is the latest recevied weather packets stored in our database for station/object AF5AA. If no packets are shown the sender has not sent any weather packets the latest 10 day(s).
| Time | Temp. | Humidity | Pressure | Rain* | Wind** | Luminosity | Snow |
|---|---|---|---|---|---|---|---|
| 1778025262 | 27.22° C | 81% | 1004.8 hPa | 0 mm | - | 35 W/m² | - |
| 1778024958 | 27.22° C | 81% | 1004.9 hPa | 0 mm | - | 34 W/m² | - |
| 1778024656 | 27.22° C | 80% | 1004.9 hPa | 0 mm | - | 36 W/m² | - |
| 1778024352 | 27.22° C | 79% | 1004.6 hPa | 0 mm | - | 35 W/m² | - |
| 1778024050 | 27.22° C | 79% | 1004.7 hPa | 0 mm | - | 39 W/m² | - |
| 1778023747 | 27.78° C | 78% | 1004.7 hPa | 0 mm | - | 35 W/m² | - |
| 1778023445 | 27.78° C | 78% | 1004.5 hPa | 0 mm | - | 34 W/m² | - |
| 1778023141 | 27.78° C | 76% | 1004.4 hPa | 0 mm | - | 47 W/m² | - |
| 1778022839 | 27.78° C | 76% | 1004.4 hPa | 0 mm | - | 45 W/m² | - |
| 1778022537 | 27.78° C | 75% | 1004.5 hPa | 0 mm | - | 46 W/m² | - |
| 1778022234 | 27.78° C | 73% | 1004.5 hPa | 0 mm | - | 46 W/m² | - |
| 1778021931 | 28.33° C | 76% | 1004.7 hPa | 0 mm | - | 47 W/m² | - |
| 1778021628 | 28.33° C | 73% | 1004.6 hPa | 0 mm | - | 54 W/m² | - |
| 1778021323 | 28.33° C | 73% | 1004.6 hPa | 0 mm | - | 67 W/m² | - |
| 1778021021 | 28.89° C | 73% | 1004.5 hPa | 0 mm | - | 45 W/m² | - |
| 1778020718 | 28.89° C | 72% | 1004.4 hPa | 0 mm | - | 60 W/m² | - |
| 1778020415 | 28.89° C | 72% | 1004.3 hPa | 0 mm | - | 67 W/m² | - |
| 1778020111 | 28.33° C | 72% | 1004.3 hPa | 0 mm | - | 69 W/m² | - |
| 1778019807 | 28.33° C | 73% | 1004.5 hPa | 0 mm | - | 73 W/m² | - |
| 1778019505 | 28.33° C | 73% | 1004.5 hPa | 0 mm | - | 66 W/m² | - |
| 1778019201 | 28.33° C | 73% | 1004.7 hPa | 0 mm | - | 76 W/m² | - |
| 1778018898 | 28.89° C | 74% | 1004.7 hPa | 0 mm | - | 55 W/m² | - |
| 1778018595 | 28.89° C | 75% | 1004.7 hPa | 0 mm | - | 73 W/m² | - |
| 1778018293 | 28.33° C | 76% | 1004.9 hPa | 0 mm | - | 99 W/m² | - |
| 1778017991 | 28.89° C | 75% | 1005.1 hPa | 0 mm | - | 67 W/m² | - |
* Rain latest hour (hover to see other rain measurements)
** Current wind speed in m/s (hover to see current wind gust speed)